User: anonymous   Login
Location: Unspecified
(0.0000°N, 0.0000°E)
Time: 03:29:22
(UTC+00:00)
Language:

Kosmos-1577 - Orbit

View from above orbital plane
View from above orbital plane
View from above satellite
View from above satellite

Ground track
Ground track

The orbit data is extracted from the following two-line orbital elements,

1 15077U 84067A   18016.21962190  .00000017  00000-0  21095-5 0  9991
2 15077  82.9589 320.7370 0034681 303.3503 168.3269 13.75407467431135
Epoch (UTC): 16 January 2018 05:16:15
Eccentricity: 0.0034681
inclination: 82.9589°
perigee height: 955 km
apogee height: 1006 km
right ascension of ascending node: 320.7370°
argument of perigee: 303.3503°
revolutions per day: 13.75407467
mean anomaly at epoch: 168.3269°
orbit number at epoch: 43113

The dashed part of the orbit path shows where the satellite is in the earth's shadow,  

DLR